Kosmos-397

operational
NORAD ID: 4964 Int'l Des: 1971-015 Owner: PKO Country: SU
LEOELLIPTICAL

关于 Kosmos-397

正在加载描述...

实时位置

正在加载3D地球...

即将过境

高度历史

Altitude vs Time

uPlot chart will show altitude changes over time

两行轨道根数

1 04964U 71015A 26062.13380045 .00000049 00000-0 59074-4 0 9999
2 04964 65.7273 339.9763 1033891 278.4579 70.0749 12.74934151654731
Epoch: Mar 3, 2026 • Age: 22 hours

当前状态

高度 600.2 km
速度 7.93 km/s
星下点 -58.36°S, 164.09°E
类型 other

大型星座

Loading constellations...